GEFSCGP_prec_meanprecacc_354.txt.gz
Total_Precipitation_Accumulation
0.01 0.02 0.02 0.01 0.02 0.04 0.06 0.14 0.26 0.27 0.27 0.37 0.46 0.65 0.84 0.93 1.17 1.51 1.73 1.70 1.66 1.98 2.44 2.81 3.12 3.20 3.52 3.73 3.90 3.92 4.18 4.63 4.99 4.84 4.55 4.43 4.22 3.99 3.75 3.48 3.39 3.44 3.42 3.59
0.01 0.02 0.01 0.02 0.02 0.03 0.05 0.11 0.22 0.27 0.27 0.41 0.56 0.79 0.93 1.13 1.40 1.55 1.46 1.44 1.59 1.98 2.48 2.86 3.13 3.23 3.48 3.76 4.19 4.33 4.54 4.94 5.11 4.96 4.84 4.73 4.63 4.24 4.14 3.98 3.83 3.43 3.22 3.35
0.02 0.02 0.01 0.02 0.02 0.03 0.06 0.12 0.20 0.25 0.34 0.50 0.64 1.11 1.25 1.39 1.55 1.57 1.48 1.66 1.69 1.75 2.17 2.45 2.56 2.71 2.89 3.04 3.29 3.59 4.13 4.67 4.89 4.96 4.86 4.84 4.90 4.46 4.21 4.09 3.93 3.52 3.23 3.13
0.01 0.02 0.01 0.02 0.03 0.03 0.08 0.11 0.12 0.17 0.32 0.62 0.73 1.44 1.61 1.75 1.91 1.78 1.66 1.59 1.59 1.80 2.10 2.12 1.94 2.07 2.32 2.31 2.62 3.06 3.55 3.94 4.19 4.28 4.29 4.37 4.36 4.29 4.20 4.10 3.71 3.49 3.23 3.11
0.02 0.02 0.03 0.05 0.03 0.03 0.07 0.10 0.13 0.19 0.34 0.63 0.69 1.11 1.66 1.97 2.17 1.79 1.64 1.49 1.56 1.77 1.79 1.74 1.76 1.86 2.01 2.16 2.47 2.79 3.15 3.47 3.64 3.74 3.85 3.97 3.87 3.91 3.80 3.70 3.52 3.31 3.14 2.99
0.03 0.04 0.04 0.04 0.04 0.06 0.07 0.13 0.23 0.31 0.54 1.00 0.85 0.97 1.52 1.87 1.72 1.50 1.42 1.22 1.33 1.51 1.58 1.63 1.73 1.86 1.97 2.26 2.61 2.89 3.15 3.41 3.47 3.26 3.17 3.23 3.30 3.37 3.34 3.19 3.04 2.82 2.76 2.69
0.13 0.11 0.08 0.07 0.08 0.10 0.11 0.24 0.74 1.18 1.50 1.41 0.88 0.99 1.61 1.47 1.15 1.07 1.16 1.15 1.15 1.17 1.30 1.41 1.61 1.82 2.02 2.11 2.18 2.62 3.04 3.24 3.15 2.90 2.73 2.68 2.84 2.96 2.92 2.80 2.74 2.66 2.51 2.46
0.29 0.27 0.15 0.11 0.14 0.16 0.16 0.28 0.80 1.12 1.22 1.19 0.98 1.40 1.91 1.47 1.02 0.87 0.97 0.98 0.89 0.82 0.78 0.86 1.05 1.18 1.32 1.36 1.38 1.55 1.83 2.08 2.17 2.07 2.12 2.21 2.27 2.34 2.36 2.56 2.40 2.41 2.34 2.22
0.18 0.17 0.13 0.14 0.19 0.20 0.26 0.31 0.34 0.57 0.80 1.20 1.25 1.46 1.59 1.30 1.00 0.96 1.04 0.95 0.78 0.73 0.68 0.75 0.87 0.93 1.01 1.03 1.08 1.21 1.47 1.74 1.76 1.77 1.85 1.91 1.95 2.02 2.07 2.12 2.07 2.04 2.11 2.07
0.12 0.12 0.14 0.13 0.17 0.21 0.22 0.31 0.47 0.74 1.01 1.18 1.30 1.70 1.90 1.68 1.37 1.17 1.14 1.02 0.80 0.69 0.66 0.73 0.84 0.89 0.99 1.09 1.24 1.37 1.49 1.62 1.61 1.58 1.61 1.57 1.71 1.75 1.82 1.82 1.75 1.77 1.84 1.86
0.09 0.11 0.15 0.21 0.24 0.25 0.26 0.34 0.50 0.69 0.75 1.00 1.43 1.61 1.39 1.30 1.27 1.33 1.28 1.10 0.84 0.69 0.64 0.70 0.83 0.90 0.99 1.11 1.22 1.36 1.46 1.58 1.56 1.48 1.56 1.63 1.71 1.78 1.72 1.67 1.57 1.66 1.76 1.81
0.10 0.13 0.19 0.27 0.24 0.19 0.25 0.36 0.51 0.78 0.83 0.86 1.05 1.27 0.90 0.90 1.00 1.08 1.09 0.89 0.70 0.64 0.66 0.73 0.85 0.92 1.06 1.13 1.19 1.23 1.35 1.47 1.48 1.50 1.64 1.86 1.86 1.88 1.81 1.66 1.58 1.63 1.67 1.73
0.16 0.16 0.30 0.58 0.54 0.30 0.28 0.28 0.38 0.54 0.66 0.76 1.01 1.23 0.85 0.90 1.01 1.00 0.98 0.87 0.80 0.75 0.75 0.84 0.93 0.90 1.04 1.17 1.21 1.25 1.36 1.46 1.62 1.69 1.78 1.90 1.92 1.86 1.74 1.68 1.64 1.67 1.67 1.69
0.14 0.16 0.27 0.67 0.71 0.48 0.35 0.31 0.34 0.47 0.60 0.59 0.63 0.91 0.93 0.91 1.03 1.06 1.07 1.01 0.96 0.84 0.85 1.00 1.10 1.07 1.07 1.09 1.20 1.30 1.42 1.54 1.55 1.56 1.63 1.72 1.66 1.61 1.60 1.63 1.63 1.63 1.68 1.70
0.14 0.18 0.19 0.30 0.41 0.44 0.40 0.33 0.30 0.33 0.36 0.50 0.59 0.81 1.02 1.02 1.06 1.01 0.99 0.94 0.92 0.88 0.86 0.95 0.92 0.92 0.90 0.90 1.01 1.22 1.20 1.28 1.43 1.53 1.58 1.64 1.67 1.68 1.69 1.62 1.53 1.59 1.65 1.61
0.21 0.26 0.25 0.32 0.41 0.45 0.43 0.38 0.33 0.31 0.30 0.38 0.51 0.72 0.80 0.88 0.93 1.00 1.03 1.00 0.91 0.83 0.89 0.83 0.76 0.70 0.78 0.86 0.93 1.09 1.10 1.17 1.34 1.39 1.45 1.63 1.75 1.76 1.72 1.61 1.62 1.65 1.69 1.75
0.33 0.38 0.36 0.40 0.49 0.62 0.63 0.40 0.37 0.39 0.36 0.48 0.75 0.88 0.87 1.03 1.03 0.97 0.99 0.98 0.85 0.81 0.86 0.82 0.75 0.69 0.74 0.86 0.94 1.01 1.13 1.20 1.28 1.34 1.43 1.50 1.60 1.65 1.55 1.47 1.53 1.59 1.67 1.80
0.39 0.56 0.57 0.55 0.73 0.92 0.74 0.45 0.39 0.44 0.43 0.45 0.60 0.71 0.80 1.03 1.08 0.90 0.83 0.83 0.78 0.77 0.77 0.81 0.79 0.77 0.90 0.93 1.03 1.18 1.31 1.30 1.31 1.46 1.58 1.55 1.64 1.79 1.80 1.74 1.75 1.83 1.90 1.90
0.34 0.54 0.62 0.69 0.86 0.88 0.75 0.60 0.53 0.59 0.70 0.53 0.58 0.65 0.72 0.75 0.88 0.96 0.78 0.80 0.79 0.70 0.73 0.77 0.82 0.89 1.03 1.06 1.10 1.29 1.39 1.46 1.52 1.57 1.70 1.71 1.71 1.87 1.98 1.97 2.04 2.11 2.14 2.01
0.43 0.57 0.73 0.72 0.91 1.07 0.89 0.70 0.61 0.73 1.22 0.86 0.70 0.67 0.70 0.74 1.11 1.22 0.90 0.81 0.81 0.78 0.86 0.95 0.97 1.04 1.11 1.20 1.36 1.51 1.58 1.71 1.80 1.77 1.80 1.89 2.00 2.08 2.16 2.36 2.59 2.65 2.65 2.50
0.87 0.91 0.91 0.90 0.98 0.99 0.85 0.70 0.71 1.24 1.51 0.96 0.78 0.68 0.71 0.80 0.95 1.03 0.89 0.83 0.87 0.94 1.08 1.23 1.39 1.48 1.50 1.43 1.50 1.70 1.88 1.99 2.06 2.20 2.25 2.29 2.38 2.51 2.60 2.85 2.98 2.99 2.97 3.04
1.16 1.20 1.16 1.18 1.38 1.40 0.99 0.95 1.18 1.40 1.22 1.03 0.98 0.91 0.80 0.79 0.83 0.96 1.02 1.03 1.05 1.07 1.22 1.30 1.44 1.61 1.71 1.78 1.86 1.99 2.00 2.12 2.34 2.41 2.42 2.50 2.71 2.65 2.73 3.00 3.00 3.07 3.22 3.24
1.19 1.25 1.30 1.38 1.49 1.36 1.19 1.29 1.36 1.24 1.30 1.23 1.07 1.08 0.97 0.91 0.87 0.88 1.00 1.10 1.14 1.10 1.18 1.32 1.34 1.47 1.69 1.83 1.94 2.13 2.24 2.24 2.28 2.40 2.49 2.66 2.89 3.03 3.10 3.31 3.41 3.35 3.29 3.21
1.34 1.17 1.35 1.57 1.65 1.51 1.54 1.50 1.43 1.39 1.37 1.24 1.08 1.12 1.11 1.01 0.92 0.92 1.02 1.06 1.02 1.02 1.09 1.22 1.28 1.45 1.61 1.73 1.94 2.17 2.24 2.22 2.36 2.48 2.53 2.68 2.84 2.96 3.06 3.24 3.30 3.29 3.22 3.18
1.59 1.51 1.76 2.00 2.01 1.99 2.00 1.81 1.56 1.41 1.29 1.22 1.15 1.18 1.17 1.12 1.07 1.02 1.07 1.14 1.04 0.97 1.06 1.19 1.24 1.36 1.53 1.56 1.76 2.00 2.18 2.31 2.53 2.69 2.75 2.85 2.97 3.11 3.24 3.16 3.22 3.26 3.22 3.13
1.71 1.86 2.09 2.28 2.09 2.07 2.13 1.87 1.58 1.52 1.53 1.48 1.50 1.47 1.39 1.33 1.29 1.18 1.09 1.10 1.06 1.03 1.09 1.25 1.30 1.36 1.45 1.49 1.67 1.87 2.09 2.30 2.64 2.77 2.81 2.85 2.93 3.06 3.07 3.07 3.03 3.03 2.90 2.86

GEFSCGP_prec_meanprecacc_360.txt.gz
Total_Precipitation_Accumulation
0.01 0.03 0.02 0.02 0.03 0.05 0.07 0.15 0.28 0.29 0.29 0.38 0.47 0.66 0.84 0.93 1.18 1.51 1.74 1.70 1.66 1.98 2.45 2.82 3.13 3.21 3.53 3.73 3.90 3.93 4.19 4.64 5.01 4.85 4.56 4.44 4.23 4.00 3.77 3.51 3.43 3.48 3.45 3.64
0.01 0.02 0.01 0.02 0.02 0.04 0.05 0.12 0.24 0.30 0.29 0.44 0.61 0.81 0.93 1.13 1.41 1.55 1.47 1.45 1.60 1.99 2.49 2.87 3.14 3.23 3.48 3.76 4.19 4.33 4.55 4.95 5.12 4.98 4.86 4.74 4.64 4.26 4.15 4.00 3.87 3.46 3.26 3.39
0.02 0.02 0.01 0.02 0.03 0.03 0.06 0.13 0.21 0.26 0.36 0.55 0.72 1.16 1.26 1.39 1.55 1.57 1.50 1.68 1.69 1.75 2.17 2.46 2.57 2.72 2.89 3.04 3.31 3.61 4.14 4.69 4.91 4.99 4.89 4.86 4.92 4.48 4.23 4.11 3.95 3.54 3.26 3.16
0.01 0.02 0.02 0.02 0.03 0.03 0.08 0.11 0.12 0.18 0.34 0.65 0.79 1.51 1.65 1.76 1.92 1.78 1.67 1.60 1.59 1.80 2.11 2.12 1.95 2.08 2.33 2.32 2.64 3.08 3.59 3.98 4.22 4.32 4.32 4.39 4.38 4.31 4.23 4.13 3.74 3.52 3.26 3.14
0.02 0.02 0.03 0.05 0.03 0.04 0.07 0.10 0.14 0.20 0.35 0.64 0.71 1.15 1.71 1.99 2.18 1.79 1.64 1.50 1.57 1.78 1.79 1.75 1.77 1.87 2.02 2.17 2.49 2.81 3.18 3.50 3.67 3.77 3.87 4.00 3.89 3.94 3.84 3.74 3.56 3.35 3.19 3.04
0.03 0.04 0.04 0.04 0.04 0.06 0.07 0.14 0.23 0.33 0.55 1.01 0.88 1.00 1.58 1.96 1.77 1.52 1.43 1.22 1.34 1.51 1.60 1.65 1.75 1.87 2.00 2.29 2.64 2.90 3.17 3.42 3.49 3.28 3.19 3.26 3.32 3.40 3.38 3.23 3.08 2.86 2.83 2.77
0.14 0.11 0.08 0.07 0.08 0.10 0.11 0.25 0.75 1.19 1.51 1.42 0.90 1.02 1.66 1.52 1.20 1.11 1.17 1.16 1.15 1.18 1.31 1.44 1.63 1.83 2.06 2.18 2.22 2.63 3.07 3.26 3.16 2.92 2.75 2.71 2.87 3.00 2.95 2.83 2.79 2.71 2.58 2.53
0.29 0.27 0.15 0.11 0.14 0.16 0.16 0.28 0.80 1.12 1.23 1.21 0.99 1.42 1.96 1.50 1.05 0.90 1.00 0.99 0.89 0.82 0.79 0.88 1.07 1.20 1.34 1.38 1.40 1.58 1.86 2.09 2.17 2.09 2.15 2.25 2.33 2.41 2.42 2.63 2.49 2.48 2.41 2.29
0.18 0.17 0.13 0.14 0.19 0.20 0.26 0.31 0.34 0.58 0.81 1.22 1.27 1.49 1.64 1.34 1.03 0.98 1.07 1.01 0.80 0.74 0.69 0.77 0.90 0.95 1.03 1.06 1.10 1.23 1.49 1.76 1.80 1.80 1.90 1.99 2.05 2.13 2.16 2.22 2.18 2.14 2.20 2.14
0.12 0.12 0.14 0.13 0.17 0.21 0.23 0.31 0.48 0.76 1.02 1.21 1.33 1.72 1.93 1.71 1.40 1.21 1.20 1.10 0.83 0.72 0.69 0.75 0.87 0.91 1.02 1.12 1.28 1.40 1.52 1.66 1.67 1.65 1.68 1.67 1.85 1.92 1.95 1.94 1.87 1.90 1.97 1.95
0.09 0.11 0.16 0.21 0.24 0.25 0.26 0.35 0.51 0.70 0.76 1.01 1.44 1.63 1.41 1.33 1.32 1.45 1.34 1.13 0.86 0.71 0.67 0.73 0.86 0.97 1.08 1.18 1.27 1.41 1.53 1.67 1.66 1.57 1.63 1.77 1.91 2.00 1.88 1.79 1.68 1.76 1.86 1.91
0.10 0.13 0.19 0.27 0.24 0.19 0.25 0.36 0.52 0.78 0.83 0.86 1.06 1.27 0.92 0.94 1.05 1.15 1.15 0.94 0.77 0.72 0.71 0.76 0.88 0.99 1.20 1.26 1.28 1.32 1.45 1.62 1.65 1.64 1.75 2.00 2.03 2.03 1.92 1.74 1.66 1.74 1.82 1.85
0.16 0.17 0.30 0.59 0.54 0.30 0.28 0.28 0.38 0.54 0.66 0.76 1.02 1.24 0.86 0.94 1.07 1.06 1.05 0.94 0.86 0.80 0.80 0.89 0.98 0.95 1.11 1.26 1.34 1.41 1.51 1.62 1.78 1.85 1.95 2.13 2.15 2.07 1.86 1.76 1.72 1.75 1.78 1.86
0.14 0.16 0.28 0.68 0.72 0.48 0.35 0.31 0.34 0.47 0.60 0.59 0.63 0.91 0.94 0.92 1.07 1.11 1.13 1.05 0.99 0.87 0.90 1.06 1.17 1.17 1.20 1.23 1.34 1.46 1.55 1.64 1.66 1.70 1.79 1.88 1.85 1.83 1.74 1.76 1.77 1.75 1.77 1.79
0.15 0.18 0.19 0.30 0.41 0.44 0.40 0.34 0.30 0.33 0.36 0.51 0.60 0.82 1.03 1.03 1.08 1.04 1.02 0.97 0.95 0.91 0.91 1.00 1.00 1.02 1.02 1.01 1.09 1.27 1.24 1.32 1.48 1.59 1.66 1.71 1.76 1.78 1.79 1.71 1.62 1.67 1.74 1.70
0.21 0.26 0.25 0.32 0.41 0.45 0.43 0.39 0.34 0.32 0.30 0.38 0.51 0.73 0.81 0.90 0.96 1.03 1.05 1.03 0.96 0.94 1.06 0.95 0.85 0.82 0.96 1.02 1.03 1.15 1.15 1.22 1.38 1.46 1.51 1.69 1.81 1.82 1.77 1.66 1.67 1.71 1.76 1.80
0.34 0.38 0.37 0.41 0.50 0.62 0.64 0.41 0.38 0.40 0.36 0.48 0.76 0.90 0.89 1.05 1.07 1.00 1.01 1.01 0.90 0.87 1.00 0.99 0.98 0.87 0.93 1.05 1.11 1.11 1.18 1.24 1.31 1.37 1.45 1.53 1.62 1.67 1.57 1.48 1.55 1.61 1.70 1.84
0.40 0.57 0.59 0.56 0.74 0.93 0.76 0.45 0.40 0.45 0.45 0.47 0.63 0.74 0.83 1.07 1.11 0.93 0.85 0.85 0.81 0.79 0.81 0.90 0.98 1.02 1.12 1.09 1.21 1.34 1.40 1.36 1.36 1.50 1.61 1.58 1.67 1.81 1.81 1.76 1.76 1.85 1.92 1.92
0.34 0.54 0.63 0.71 0.88 0.89 0.76 0.61 0.55 0.62 0.72 0.56 0.63 0.71 0.80 0.82 0.92 0.99 0.80 0.82 0.82 0.75 0.78 0.83 0.90 1.03 1.20 1.21 1.26 1.46 1.52 1.57 1.61 1.65 1.76 1.77 1.76 1.92 2.03 2.01 2.08 2.16 2.21 2.09
0.43 0.57 0.74 0.73 0.93 1.09 0.91 0.73 0.66 0.76 1.24 0.89 0.73 0.71 0.80 0.86 1.20 1.27 0.95 0.84 0.83 0.81 0.89 0.99 1.02 1.12 1.21 1.30 1.50 1.66 1.71 1.84 1.90 1.85 1.89 1.98 2.08 2.16 2.24 2.43 2.64 2.71 2.73 2.68
0.88 0.92 0.92 0.92 1.01 1.02 0.86 0.72 0.74 1.28 1.55 1.00 0.80 0.73 0.77 0.87 1.02 1.08 0.94 0.87 0.90 0.98 1.12 1.27 1.43 1.52 1.57 1.53 1.65 1.88 2.05 2.12 2.17 2.28 2.31 2.36 2.47 2.58 2.67 2.91 3.06 3.08 3.06 3.17
1.17 1.22 1.18 1.20 1.42 1.44 1.01 1.00 1.21 1.43 1.25 1.06 1.01 0.95 0.86 0.86 0.90 1.03 1.08 1.07 1.08 1.10 1.25 1.33 1.46 1.63 1.75 1.87 2.00 2.20 2.21 2.29 2.50 2.54 2.48 2.55 2.75 2.68 2.76 3.03 3.03 3.11 3.26 3.28
1.20 1.27 1.32 1.40 1.51 1.38 1.21 1.31 1.38 1.28 1.36 1.28 1.11 1.12 1.03 0.97 0.92 0.94 1.06 1.15 1.18 1.13 1.21 1.34 1.35 1.48 1.72 1.88 2.01 2.25 2.42 2.45 2.50 2.57 2.59 2.73 2.95 3.07 3.14 3.34 3.43 3.38 3.32 3.25
1.37 1.19 1.38 1.59 1.66 1.54 1.57 1.52 1.45 1.41 1.40 1.27 1.11 1.15 1.15 1.05 0.97 0.99 1.08 1.13 1.09 1.08 1.13 1.23 1.29 1.46 1.63 1.76 1.99 2.26 2.39 2.39 2.56 2.65 2.68 2.80 2.96 3.08 3.15 3.31 3.36 3.33 3.25 3.22
1.62 1.54 1.78 2.03 2.05 2.03 2.02 1.83 1.57 1.43 1.31 1.23 1.17 1.20 1.19 1.15 1.14 1.10 1.15 1.21 1.10 1.01 1.09 1.21 1.25 1.38 1.55 1.58 1.79 2.06 2.27 2.41 2.62 2.76 2.83 2.94 3.06 3.20 3.31 3.23 3.29 3.32 3.26 3.18
1.74 1.88 2.12 2.32 2.12 2.11 2.19 1.94 1.62 1.54 1.56 1.51 1.52 1.50 1.45 1.42 1.37 1.22 1.14 1.16 1.11 1.08 1.14 1.30 1.34 1.40 1.50 1.53 1.70 1.91 2.16 2.39 2.72 2.82 2.87 2.92 2.98 3.09 3.11 3.11 3.09 3.10 2.99 2.95

GEFSCGP_prec_meanprecacc_366.txt.gz
Total_Precipitation_Accumulation
0.01 0.03 0.02 0.02 0.03 0.05 0.08 0.16 0.29 0.30 0.29 0.39 0.48 0.66 0.84 0.93 1.18 1.52 1.74 1.70 1.67 1.98 2.45 2.82 3.13 3.21 3.53 3.73 3.91 3.94 4.19 4.65 5.02 4.87 4.57 4.45 4.26 4.05 3.80 3.53 3.45 3.53 3.52 3.70
0.01 0.02 0.01 0.02 0.02 0.04 0.06 0.12 0.24 0.30 0.30 0.44 0.61 0.81 0.93 1.13 1.41 1.55 1.48 1.45 1.60 1.99 2.49 2.87 3.14 3.24 3.49 3.77 4.20 4.35 4.57 4.97 5.14 5.00 4.89 4.80 4.73 4.31 4.19 4.03 3.89 3.50 3.33 3.46
0.02 0.02 0.01 0.02 0.03 0.04 0.06 0.13 0.21 0.27 0.37 0.55 0.72 1.16 1.26 1.39 1.55 1.57 1.50 1.68 1.70 1.75 2.18 2.46 2.57 2.73 2.90 3.05 3.32 3.64 4.17 4.72 4.94 5.03 4.94 4.91 4.96 4.51 4.27 4.15 3.98 3.57 3.31 3.22
0.02 0.02 0.02 0.02 0.03 0.03 0.08 0.11 0.13 0.18 0.34 0.65 0.79 1.51 1.65 1.76 1.92 1.78 1.67 1.61 1.60 1.81 2.11 2.13 1.95 2.08 2.34 2.33 2.65 3.10 3.61 4.00 4.24 4.34 4.35 4.41 4.40 4.33 4.25 4.15 3.78 3.57 3.31 3.19
0.02 0.03 0.03 0.05 0.03 0.04 0.07 0.10 0.14 0.20 0.35 0.64 0.71 1.15 1.71 1.99 2.18 1.79 1.64 1.50 1.57 1.78 1.80 1.76 1.78 1.88 2.02 2.17 2.49 2.81 3.19 3.52 3.69 3.79 3.89 4.02 3.92 3.96 3.85 3.76 3.59 3.38 3.24 3.10
0.03 0.05 0.04 0.04 0.04 0.06 0.07 0.14 0.24 0.33 0.56 1.02 0.88 1.00 1.58 1.96 1.77 1.52 1.43 1.23 1.34 1.52 1.60 1.66 1.76 1.88 2.00 2.29 2.64 2.91 3.17 3.43 3.51 3.31 3.21 3.28 3.35 3.43 3.40 3.25 3.10 2.89 2.87 2.82
0.14 0.11 0.09 0.07 0.08 0.10 0.11 0.25 0.75 1.20 1.52 1.42 0.90 1.02 1.66 1.52 1.20 1.11 1.18 1.16 1.16 1.18 1.32 1.45 1.64 1.85 2.07 2.19 2.22 2.63 3.07 3.27 3.18 2.95 2.79 2.75 2.91 3.04 2.98 2.86 2.82 2.75 2.63 2.59
0.29 0.27 0.15 0.11 0.14 0.16 0.16 0.28 0.80 1.13 1.24 1.21 1.00 1.43 1.96 1.50 1.06 0.90 1.00 1.00 0.90 0.83 0.80 0.89 1.08 1.20 1.35 1.39 1.40 1.58 1.87 2.10 2.20 2.13 2.20 2.29 2.37 2.45 2.46 2.66 2.53 2.55 2.47 2.37
0.18 0.17 0.13 0.14 0.19 0.20 0.27 0.31 0.34 0.58 0.81 1.23 1.28 1.49 1.64 1.34 1.03 0.98 1.07 1.01 0.80 0.75 0.70 0.79 0.92 0.96 1.03 1.06 1.11 1.24 1.50 1.78 1.84 1.86 1.95 2.04 2.11 2.19 2.22 2.27 2.22 2.21 2.27 2.21
0.12 0.13 0.14 0.13 0.17 0.21 0.23 0.31 0.48 0.76 1.02 1.21 1.33 1.72 1.93 1.72 1.40 1.21 1.20 1.10 0.83 0.72 0.70 0.77 0.88 0.92 1.03 1.13 1.29 1.42 1.54 1.68 1.71 1.71 1.74 1.72 1.89 1.97 2.01 2.00 1.92 1.95 2.02 2.00
0.09 0.11 0.16 0.21 0.24 0.25 0.26 0.35 0.51 0.70 0.76 1.01 1.45 1.63 1.41 1.33 1.32 1.45 1.35 1.13 0.87 0.72 0.68 0.75 0.87 0.98 1.09 1.19 1.28 1.42 1.55 1.69 1.68 1.61 1.69 1.83 1.95 2.04 1.93 1.85 1.74 1.81 1.92 1.97
0.10 0.13 0.19 0.28 0.24 0.19 0.25 0.36 0.52 0.79 0.83 0.86 1.06 1.28 0.92 0.94 1.05 1.15 1.16 0.95 0.77 0.73 0.72 0.77 0.89 1.00 1.22 1.28 1.30 1.34 1.47 1.64 1.68 1.70 1.81 2.08 2.10 2.08 1.97 1.81 1.74 1.81 1.90 1.92
0.16 0.17 0.30 0.59 0.54 0.30 0.28 0.28 0.38 0.54 0.66 0.76 1.02 1.24 0.86 0.94 1.07 1.07 1.05 0.94 0.87 0.81 0.82 0.91 0.99 0.96 1.12 1.28 1.36 1.43 1.54 1.64 1.81 1.89 2.00 2.19 2.21 2.12 1.92 1.83 1.80 1.84 1.90 1.96
0.14 0.16 0.28 0.68 0.72 0.48 0.35 0.31 0.34 0.47 0.60 0.59 0.63 0.91 0.94 0.93 1.07 1.12 1.13 1.06 0.99 0.87 0.90 1.08 1.19 1.19 1.21 1.25 1.37 1.49 1.58 1.66 1.69 1.73 1.82 1.92 1.90 1.90 1.82 1.84 1.83 1.82 1.84 1.85
0.15 0.19 0.19 0.30 0.41 0.44 0.40 0.34 0.31 0.33 0.36 0.51 0.60 0.82 1.03 1.04 1.09 1.05 1.03 0.98 0.96 0.92 0.91 1.02 1.02 1.05 1.04 1.04 1.13 1.31 1.28 1.36 1.51 1.62 1.69 1.74 1.80 1.84 1.85 1.78 1.69 1.74 1.80 1.77
0.21 0.26 0.25 0.32 0.41 0.45 0.43 0.39 0.34 0.32 0.30 0.38 0.51 0.73 0.81 0.90 0.97 1.04 1.06 1.04 0.97 0.95 1.08 0.97 0.88 0.85 1.00 1.05 1.06 1.19 1.19 1.25 1.41 1.48 1.53 1.72 1.83 1.84 1.81 1.71 1.72 1.77 1.82 1.88
0.34 0.38 0.37 0.41 0.50 0.62 0.64 0.41 0.38 0.40 0.37 0.49 0.77 0.90 0.90 1.06 1.08 1.01 1.02 1.03 0.92 0.90 1.04 1.04 1.02 0.90 0.96 1.08 1.14 1.15 1.23 1.28 1.34 1.40 1.48 1.56 1.65 1.70 1.60 1.53 1.59 1.65 1.74 1.87
0.40 0.57 0.59 0.56 0.74 0.93 0.76 0.45 0.40 0.45 0.45 0.47 0.63 0.74 0.83 1.07 1.12 0.94 0.86 0.87 0.84 0.83 0.85 0.94 1.02 1.06 1.14 1.11 1.23 1.39 1.46 1.41 1.41 1.55 1.65 1.62 1.70 1.85 1.86 1.81 1.81 1.89 1.95 1.95
0.34 0.55 0.63 0.71 0.88 0.89 0.76 0.61 0.55 0.62 0.72 0.57 0.63 0.71 0.80 0.82 0.92 1.00 0.82 0.85 0.87 0.79 0.82 0.87 0.94 1.08 1.23 1.23 1.28 1.51 1.59 1.64 1.66 1.71 1.83 1.83 1.83 1.99 2.10 2.09 2.14 2.21 2.25 2.12
0.44 0.57 0.74 0.73 0.93 1.09 0.91 0.73 0.66 0.76 1.24 0.90 0.74 0.72 0.81 0.87 1.21 1.29 0.97 0.89 0.88 0.85 0.93 1.03 1.07 1.20 1.27 1.33 1.54 1.73 1.78 1.91 1.99 1.95 1.99 2.08 2.16 2.22 2.31 2.52 2.72 2.78 2.78 2.71
0.88 0.92 0.93 0.92 1.01 1.02 0.87 0.72 0.74 1.29 1.55 1.00 0.81 0.75 0.79 0.89 1.04 1.10 0.96 0.90 0.94 1.01 1.15 1.30 1.47 1.56 1.60 1.56 1.69 1.93 2.11 2.18 2.24 2.37 2.42 2.47 2.57 2.65 2.72 2.98 3.11 3.13 3.10 3.21
1.18 1.22 1.18 1.21 1.42 1.44 1.01 1.00 1.21 1.44 1.26 1.07 1.02 0.97 0.89 0.89 0.93 1.07 1.12 1.12 1.13 1.14 1.29 1.36 1.50 1.65 1.76 1.88 2.02 2.23 2.26 2.33 2.56 2.60 2.56 2.65 2.87 2.81 2.85 3.11 3.09 3.15 3.31 3.33
1.21 1.28 1.33 1.41 1.52 1.39 1.21 1.32 1.38 1.28 1.36 1.29 1.14 1.15 1.07 1.02 0.95 0.97 1.11 1.20 1.24 1.18 1.25 1.39 1.40 1.51 1.74 1.90 2.03 2.27 2.45 2.48 2.54 2.62 2.66 2.81 3.02 3.17 3.25 3.43 3.51 3.45 3.38 3.30
1.39 1.21 1.39 1.60 1.67 1.55 1.58 1.53 1.45 1.41 1.41 1.28 1.12 1.17 1.18 1.10 1.02 1.04 1.14 1.18 1.16 1.14 1.21 1.32 1.35 1.50 1.66 1.78 2.00 2.28 2.41 2.42 2.59 2.69 2.75 2.87 3.03 3.16 3.25 3.41 3.46 3.43 3.33 3.25
1.63 1.55 1.79 2.03 2.05 2.03 2.03 1.84 1.58 1.43 1.31 1.24 1.17 1.21 1.22 1.20 1.19 1.14 1.18 1.25 1.16 1.07 1.14 1.27 1.31 1.42 1.58 1.60 1.80 2.08 2.29 2.43 2.65 2.80 2.87 2.99 3.11 3.26 3.37 3.29 3.35 3.38 3.31 3.20
1.75 1.89 2.13 2.33 2.12 2.12 2.20 1.95 1.62 1.54 1.57 1.52 1.53 1.52 1.48 1.46 1.40 1.24 1.17 1.18 1.15 1.12 1.18 1.33 1.38 1.44 1.52 1.54 1.71 1.93 2.17 2.41 2.74 2.86 2.90 2.94 3.00 3.12 3.13 3.13 3.11 3.13 3.03 2.99

GEFSCGP_prec_meanprecacc_372.txt.gz
Total_Precipitation_Accumulation
0.01 0.04 0.02 0.02 0.03 0.05 0.08 0.16 0.29 0.30 0.29 0.39 0.48 0.66 0.84 0.93 1.18 1.52 1.74 1.71 1.67 1.99 2.46 2.83 3.14 3.22 3.53 3.73 3.91 3.94 4.20 4.66 5.03 4.87 4.58 4.47 4.29 4.07 3.82 3.56 3.51 3.58 3.56 3.74
0.02 0.02 0.02 0.02 0.02 0.04 0.06 0.12 0.24 0.31 0.30 0.44 0.61 0.81 0.93 1.13 1.41 1.56 1.48 1.46 1.60 2.00 2.50 2.88 3.14 3.24 3.49 3.77 4.20 4.35 4.58 4.98 5.15 5.01 4.90 4.81 4.74 4.33 4.20 4.05 3.93 3.54 3.37 3.50
0.02 0.02 0.02 0.02 0.03 0.04 0.06 0.13 0.21 0.27 0.37 0.55 0.72 1.16 1.26 1.39 1.55 1.58 1.50 1.69 1.70 1.76 2.18 2.46 2.58 2.73 2.90 3.06 3.33 3.64 4.19 4.73 4.95 5.03 4.95 4.92 4.98 4.53 4.28 4.17 4.00 3.62 3.36 3.26
0.02 0.02 0.02 0.02 0.03 0.03 0.08 0.11 0.13 0.18 0.34 0.65 0.80 1.51 1.65 1.76 1.92 1.78 1.67 1.61 1.60 1.81 2.12 2.13 1.96 2.09 2.34 2.33 2.65 3.10 3.62 4.01 4.26 4.35 4.35 4.41 4.41 4.35 4.27 4.18 3.79 3.61 3.38 3.26
0.02 0.03 0.03 0.05 0.04 0.04 0.07 0.10 0.14 0.20 0.35 0.64 0.71 1.15 1.72 1.99 2.18 1.79 1.64 1.50 1.57 1.78 1.81 1.77 1.79 1.88 2.02 2.17 2.49 2.82 3.19 3.52 3.70 3.80 3.90 4.02 3.92 3.97 3.88 3.78 3.61 3.42 3.32 3.19
0.03 0.05 0.05 0.04 0.05 0.06 0.07 0.14 0.24 0.33 0.56 1.02 0.88 1.00 1.58 1.96 1.77 1.52 1.43 1.23 1.34 1.53 1.62 1.67 1.77 1.89 2.01 2.30 2.64 2.91 3.17 3.43 3.51 3.31 3.23 3.30 3.37 3.45 3.43 3.28 3.13 2.92 2.94 2.89
0.14 0.11 0.09 0.07 0.08 0.10 0.11 0.25 0.75 1.20 1.52 1.42 0.90 1.02 1.66 1.52 1.20 1.11 1.18 1.16 1.16 1.19 1.34 1.46 1.65 1.85 2.07 2.19 2.22 2.64 3.07 3.27 3.18 2.96 2.80 2.76 2.93 3.06 3.02 2.89 2.84 2.78 2.67 2.64
0.29 0.27 0.15 0.11 0.14 0.16 0.16 0.28 0.80 1.13 1.24 1.21 1.00 1.43 1.96 1.50 1.06 0.90 1.00 1.00 0.90 0.83 0.81 0.90 1.09 1.21 1.35 1.39 1.40 1.58 1.87 2.10 2.20 2.14 2.21 2.30 2.38 2.47 2.48 2.69 2.56 2.57 2.50 2.40
0.18 0.17 0.13 0.14 0.19 0.20 0.27 0.31 0.34 0.58 0.81 1.23 1.28 1.49 1.64 1.34 1.03 0.98 1.07 1.01 0.81 0.75 0.71 0.79 0.92 0.97 1.04 1.06 1.11 1.24 1.50 1.78 1.84 1.87 1.96 2.05 2.12 2.20 2.23 2.28 2.25 2.23 2.30 2.24
0.12 0.13 0.14 0.13 0.17 0.21 0.23 0.31 0.48 0.76 1.02 1.21 1.33 1.72 1.93 1.72 1.40 1.22 1.21 1.10 0.83 0.72 0.70 0.78 0.89 0.93 1.03 1.13 1.29 1.42 1.54 1.69 1.72 1.72 1.75 1.72 1.90 1.99 2.04 2.03 1.94 1.97 2.04 2.03
0.09 0.11 0.16 0.21 0.24 0.25 0.26 0.35 0.51 0.70 0.76 1.01 1.45 1.63 1.41 1.33 1.32 1.45 1.35 1.13 0.87 0.72 0.68 0.75 0.88 0.99 1.10 1.20 1.28 1.43 1.55 1.69 1.69 1.62 1.70 1.83 1.96 2.05 1.96 1.88 1.76 1.83 1.94 1.99
0.10 0.13 0.19 0.28 0.24 0.19 0.25 0.37 0.52 0.79 0.83 0.86 1.06 1.28 0.92 0.94 1.05 1.15 1.16 0.95 0.78 0.73 0.72 0.77 0.90 1.01 1.22 1.28 1.30 1.34 1.48 1.65 1.69 1.70 1.82 2.09 2.11 2.09 1.99 1.82 1.75 1.83 1.92 1.95
0.16 0.17 0.30 0.59 0.54 0.30 0.28 0.28 0.38 0.54 0.67 0.76 1.02 1.24 0.86 0.94 1.07 1.07 1.06 0.95 0.87 0.81 0.82 0.91 1.00 0.97 1.13 1.28 1.38 1.45 1.55 1.65 1.81 1.90 2.01 2.21 2.22 2.14 1.93 1.85 1.82 1.87 1.94 2.00
0.14 0.16 0.28 0.68 0.72 0.48 0.35 0.31 0.34 0.47 0.60 0.60 0.63 0.91 0.94 0.93 1.07 1.12 1.14 1.06 0.99 0.88 0.90 1.08 1.20 1.20 1.23 1.27 1.38 1.50 1.59 1.67 1.69 1.74 1.83 1.93 1.92 1.92 1.84 1.86 1.86 1.86 1.89 1.89
0.15 0.19 0.19 0.30 0.41 0.44 0.41 0.34 0.31 0.33 0.36 0.51 0.60 0.82 1.03 1.04 1.09 1.06 1.04 0.98 0.96 0.92 0.91 1.02 1.02 1.06 1.06 1.05 1.13 1.31 1.30 1.37 1.52 1.63 1.69 1.76 1.82 1.86 1.89 1.83 1.73 1.78 1.85 1.81
0.21 0.27 0.25 0.32 0.41 0.45 0.43 0.39 0.34 0.32 0.30 0.38 0.51 0.73 0.81 0.90 0.97 1.05 1.07 1.05 0.98 0.96 1.08 0.98 0.89 0.87 1.01 1.05 1.06 1.19 1.21 1.27 1.42 1.49 1.53 1.72 1.85 1.86 1.83 1.72 1.74 1.80 1.86 1.91
0.34 0.38 0.37 0.41 0.50 0.62 0.64 0.41 0.38 0.40 0.37 0.49 0.77 0.90 0.90 1.07 1.08 1.02 1.03 1.04 0.93 0.90 1.04 1.05 1.03 0.91 0.96 1.09 1.15 1.16 1.23 1.29 1.35 1.41 1.49 1.57 1.67 1.71 1.62 1.53 1.60 1.68 1.78 1.90
0.40 0.57 0.59 0.56 0.74 0.93 0.76 0.45 0.40 0.45 0.45 0.48 0.63 0.74 0.84 1.08 1.13 0.95 0.87 0.88 0.85 0.83 0.86 0.95 1.03 1.07 1.16 1.13 1.25 1.40 1.47 1.43 1.43 1.56 1.66 1.63 1.72 1.88 1.88 1.83 1.84 1.92 1.99 2.00
0.34 0.55 0.64 0.71 0.88 0.89 0.76 0.61 0.56 0.62 0.72 0.57 0.64 0.72 0.81 0.83 0.93 1.01 0.83 0.86 0.88 0.80 0.84 0.90 0.97 1.12 1.28 1.27 1.31 1.53 1.61 1.66 1.68 1.72 1.83 1.84 1.85 2.01 2.13 2.12 2.18 2.27 2.30 2.16
0.44 0.57 0.74 0.73 0.93 1.09 0.91 0.73 0.66 0.76 1.25 0.90 0.74 0.73 0.82 0.90 1.24 1.30 0.99 0.90 0.89 0.87 0.98 1.08 1.12 1.24 1.32 1.38 1.57 1.75 1.80 1.93 2.02 1.96 2.01 2.09 2.17 2.24 2.34 2.55 2.75 2.81 2.80 2.73
0.89 0.92 0.93 0.92 1.01 1.02 0.87 0.72 0.75 1.30 1.56 1.00 0.82 0.75 0.81 0.92 1.08 1.15 1.00 0.93 0.95 1.04 1.21 1.37 1.53 1.61 1.65 1.60 1.71 1.95 2.13 2.20 2.27 2.40 2.45 2.49 2.58 2.67 2.75 3.01 3.14 3.14 3.12 3.23
1.19 1.23 1.19 1.21 1.42 1.44 1.02 1.01 1.22 1.44 1.26 1.07 1.03 0.98 0.90 0.92 0.96 1.11 1.17 1.16 1.17 1.18 1.34 1.41 1.54 1.69 1.80 1.91 2.04 2.25 2.28 2.36 2.59 2.63 2.59 2.68 2.90 2.83 2.88 3.17 3.12 3.17 3.32 3.35
1.23 1.28 1.34 1.41 1.52 1.39 1.22 1.32 1.38 1.28 1.37 1.30 1.14 1.16 1.08 1.04 0.99 1.02 1.16 1.26 1.30 1.26 1.31 1.43 1.43 1.54 1.77 1.92 2.05 2.30 2.48 2.51 2.57 2.64 2.69 2.83 3.05 3.20 3.28 3.47 3.55 3.48 3.40 3.32
1.42 1.22 1.41 1.61 1.67 1.56 1.58 1.54 1.46 1.42 1.41 1.29 1.13 1.18 1.19 1.13 1.06 1.08 1.18 1.23 1.23 1.23 1.28 1.36 1.38 1.53 1.69 1.80 2.02 2.29 2.43 2.45 2.62 2.71 2.78 2.90 3.05 3.17 3.26 3.43 3.48 3.46 3.36 3.28
1.66 1.57 1.82 2.05 2.06 2.04 2.04 1.85 1.59 1.44 1.32 1.25 1.18 1.23 1.24 1.22 1.22 1.17 1.22 1.30 1.20 1.12 1.20 1.31 1.33 1.44 1.60 1.63 1.83 2.10 2.31 2.46 2.67 2.82 2.90 3.01 3.13 3.28 3.38 3.30 3.37 3.40 3.33 3.22
1.78 1.93 2.16 2.36 2.14 2.13 2.21 1.95 1.63 1.55 1.58 1.53 1.54 1.53 1.49 1.48 1.42 1.26 1.19 1.20 1.17 1.14 1.21 1.37 1.41 1.47 1.55 1.56 1.74 1.96 2.21 2.43 2.77 2.88 2.92 2.96 3.02 3.13 3.14 3.14 3.13 3.16 3.07 3.04